Regional Weather Roundup
Issued by NWS

Home | Current Version | Previous Version | Graphics & Text | Print | Product List | Glossary Off
Versions: 1 2 3 4 5 6 7 8 9 10 11 12 13 14 15 16 17 18 19 20 21 22 23 24 25 26 27 28 29 30 31 32 33 34 35 36 37 38 39 40 41 42 43 44 45 46 47 48 49 50

000
ASUS43 KLMK 161710
RWRKY
KENTUCKY REGIONAL WEATHER ROUNDUP
NATIONAL WEATHER SERVICE LOUISVILLE KY
100 PM EDT WED AUG 16 2017

NOTE "FAIR" INDICATES FEW OR NO CLOUDS BELOW 12,000 FEET
WITH NO SIGNIFICANT WEATHER AND/OR OBSTRUCTIONS TO VISIBILITY.

KYZ001>023-026-027-061>063-070>075-161800-
WESTERN AND SOUTH CENTRAL KENTUCKY

CITY           SKY/WX    TMP DP  RH WIND       PRES   REMARKS
PADUCAH        CLOUDY    85  76  74 VRB5      29.99F HX  94
HENDERSON      CLOUDY    83  75  77 S5        30.00F HX  90
OWENSBORO      MOSUNNY   85  74  69 S7        30.02F HX  92
HOPKINSVILLE   MOSUNNY   89  76  66 SW5       30.02F HX 100
BOWLING GREEN  CLOUDY    85  76  74 S5        30.04F HX  94
GLASGOW        CLOUDY    84  73  69 SW8       30.06F
$$

KYZ024-025-028>034-038-045-046-053-161800-
NORTH CENTRAL KENTUCKY

CITY           SKY/WX    TMP DP  RH WIND       PRES   REMARKS
LOUISVILLE/SDF PTSUNNY   87  70  56 VRB7      30.01F HX  92
LOUISVILLE/LOU PTSUNNY   86  72  62 SW8       30.03F HX  92
FORT KNOX      MOSUNNY   86  71  60 S8        30.02F HX  91
$$

KYZ035>037-039>044-047>052-055>060-089>105-161800-
NORTHEAST KENTUCKY

CITY           SKY/WX    TMP DP  RH WIND       PRES   REMARKS
LEXINGTON      HVY RAIN  74  70  87 S7        30.07S VSB 1
COVINGTON      MOSUNNY   86  70  58 VRB6      30.04F HX  90
FRANKFORT      MOSUNNY   86  72  62 S8        30.04F HX  92
$$

KYZ054-064>069-076>088-106>120-161800-
SOUTHEAST KENTUCKY

CITY           SKY/WX    TMP DP  RH WIND       PRES   REMARKS
JACKSON        CLOUDY    82  72  71 CALM      30.09F
LONDON         PTSUNNY   82  73  74 VRB3      30.09F
SOMERSET       CLOUDY    82  70  65 N10       30.08S
MIDDLESBORO    CLOUDY    84  71  65 S7        30.09F
MONTICELLO     PTSUNNY   85  75  72 W17       30.09F HX  93
$$





USA.gov is the U.S. government's official web portal to all federal, state and local government web resources and services.